Location: Rogalle
(42.8890°N, 1.1916°E)
Time: 02:18:03
(UTC+00:00)

COSMO-SKYMED 1 - Pass Details

Date: 13 December 2025
Orbit: 578 x 580 km, 97.9° (Epoch: 12 January)

Event Time Altitude Azimuth Distance (km) Brightness Sun altitude
Exits shadow 18:00:55 35° 53° (NE) 951 3.0 -17.5°
Maximum altitude 18:02:10 46° 99° (E) 779 2.6 -17.7°
Drops below altitude 10° 18:06:06 10° 174° (S) 1,885 5.1 -18.4°
Sets 18:08:18 0° 180° (S) 2,779 6.1 -18.8°
